Home   Weather   Tulkarm   Past weeks

Flag for Palestinian Territories Past Weather in Tulkarm, West Bank, Palestinian Territories — Yesterday and Last 2 Weeks

Now
57 °F

Broken clouds.


Feels Like: 56 °F
Forecast: 57 / 69 °F
Wind: 6 mph from East

Location: Dov Airport

Current Time: Dec 3, 2016 at 11:55:34 am

Latest Report: Dec 3, 2016 at 10:50 am


Visibility: N/A

Pressure: 30.30 "Hg

Humidity: 88%

Dew Point: 54 °F

Location of TulkarmLocation

Past Weather in Tulkarm — Graph

°F

Tulkarm Temperature Yesterday

Maximum temperature yesterday: 64 °F (at 5:50 am)
Minimum temperature yesterday: 54 °F (at 7:50 am)
Average temperature yesterday: 62 °F

High & Low Weather Summary for the Past Weeks

 TemperatureHumidityPressure
High86 °F (Nov 20, 12:50 pm)94% (Dec 1, 3:02 pm)30.30 "Hg (Dec 1, 3:02 pm)
Low52 °F (Nov 26, 6:50 am)5% (Nov 24, 1:50 pm)29.74 "Hg (Dec 1, 1:50 pm)
Average69 °F32%30.00 "Hg
* Reported Nov 18 9:50 am — Dec 3 9:50 am, Tulkarm, Weather by CustomWeather, © 2016

Note: Actual official high and low records may vary slightly from our data, if they occured in-between our weather recording intervals... More about our weather records

Advertising

Tulkarm Weather History for the Previous 24 Hours

Scroll right to see more
 ConditionsComfort  
Time TempWeatherWind HumidityBarometerVisibility
9:50 am
Sat, Dec 3
55 °FPartly sunny.8 mph94%30.30 "Hg5 mi
8:50 am55 °FLight rain. Partly sunny.7 mph88%30.27 "Hg4 mi
7:50 am57 °FLight rain. Partly sunny.6 mph77%30.24 "HgN/A
6:50 am57 °FScattered clouds.10 mph77%30.24 "HgN/A
6:00 am55 °FPassing clouds.6 mph88%30.21 "HgN/A
9:50 pm
Fri, Dec 2
63 °FPassing clouds.14 mph68%30.15 "HgN/A
8:50 pm63 °FPassing clouds.18 mph64%30.12 "HgN/A
7:50 pm63 °FPassing clouds.18 mph64%30.12 "HgN/A
6:50 pm63 °FPassing clouds.20 mph59%30.09 "Hg5 mi
5:50 pm63 °FPassing clouds.17 mph64%30.09 "Hg5 mi
4:50 pm63 °FPassing clouds.25 mph68%30.04 "Hg5 mi
3:50 pm64 °FBroken clouds.24 mph60%30.04 "Hg4 mi
2:50 pm64 °FBroken clouds.25 mph60%30.01 "Hg5 mi
1:50 pm64 °FBroken clouds.23 mph60%29.98 "Hg6 mi
12:50 pm63 °FBroken clouds.22 mph73%29.98 "HgN/A
11:50 am59 °FRain. Partly sunny.29 mph88%29.98 "Hg3 mi
Weather by CustomWeather, © 2016

See weather overviewHow to use our weather pages